Weather History for Providence, RI

Change the Weather History Date:

Tuesday, November 1, 2011

  Actual Average Record
Temperature  
Mean Temperature 44 °F 49 °F  
Max Temperature 54 °F 58 °F 78 °F (1974)
Min Temperature 34 °F 39 °F 26 °F (1925)
Degree Days  
Heating Degree Days 21 16  
Month to date heating degree days 21 16  
Since 1 July heating degree days 364 474  
Cooling Degree Days 0 0  
Month to date cooling degree days 0 0  
Year to date cooling degree days 921 744  
Moisture  
Dew Point 34 °F    
Average Humidity 69    
Maximum Humidity 92    
Minimum Humidity 46    
Precipitation  
Precipitation 0.00 in 0.14 in 2.28 in (1988)
Month to date precipitation 0.00 0.14  
Year to date precipitation 47.98 38.59  
Snow  
Snow 0.00 in 0.00 in T in (1965)
Month to date snowfall 0.0 0.0  
Since 1 July snowfall 2.3 0.0  
Since 1 September snowfall 2.3 0.0  
Snow Depth 0.00 in    
Sea Level Pressure  
Sea Level Pressure 30.35 in    
Wind  
Wind Speed 8 mph (NNE)    
Max Wind Speed 18 mph    
Max Gust Speed 23 mph    
Visibility 10 miles    
Events      
T = Trace of Precipitation, MM = Missing Value Source: NWS Daily Summary

Daily Weather History Graph

Daily Weather History Graph

Search for Another Location

Airport:

Trip Planner

Search our weather history database for the weather conditions in past years. The results will help you decide how hot, cold, wet, or windy it might be!

Date:

Astronomy

Nov. 01, 2011 Rise Set
Actual Time 7:17 AM EDT 5:40 PM EDT
Civil Twilight 6:48 AM EDT 6:09 PM EDT
Nautical Twilight 6:15 AM EDT 6:42 PM EDT
Astronomical Twilight 5:43 AM EDT 7:14 PM EDT
Moon 1:03 PM EDT (11/1) 11:18 PM EDT (11/1)
Length of Visible Light 11h 20m
Length of Day
10h 23m
Waxing Crescent, 39% of the Moon is Illuminated
Nov 1
Waxing Crescent
Nov 2
First Quarter
Nov 10
Full
Nov 18
Last Quarter
Nov 25
New

Hourly Weather History & Observations

Time (EDT) Temp. Windchill Dew Point Humidity Pressure Visibility Wind Dir Wind Speed Gust Speed Precip Events Conditions
12:51 AM 37.9 °F - 33.1 °F 83% 30.37 in 10.0 mi Calm Calm - N/A   Mostly Cloudy
1:51 AM 37.9 °F - 33.1 °F 83% 30.37 in 10.0 mi Calm Calm - N/A   Scattered Clouds
2:51 AM 34.0 °F 31.0 °F 30.9 °F 89% 30.40 in 10.0 mi WSW 3.5 mph - N/A   Mostly Cloudy
3:51 AM 36.0 °F 32.1 °F 33.1 °F 89% 30.38 in 10.0 mi North 4.6 mph - N/A   Overcast
4:51 AM 37.0 °F 33.3 °F 33.1 °F 86% 30.37 in 10.0 mi North 4.6 mph - N/A   Mostly Cloudy
5:51 AM 37.0 °F 31.6 °F 33.1 °F 86% 30.35 in 10.0 mi North 6.9 mph - N/A   Overcast
6:51 AM 37.4 °F 33.8 °F 33.8 °F 87% 30.35 in 10.0 mi North 4.6 mph - N/A   Mostly Cloudy
7:51 AM 39.0 °F 33.4 °F 34.0 °F 82% 30.35 in 10.0 mi North 8.1 mph - N/A   Mostly Cloudy
8:51 AM 41.0 °F 37.1 °F 36.0 °F 82% 30.36 in 10.0 mi NE 5.8 mph - N/A   Overcast
9:51 AM 44.1 °F 39.5 °F 36.0 °F 73% 30.35 in 10.0 mi NNE 8.1 mph - N/A   Overcast
10:51 AM 45.0 °F 40.6 °F 37.0 °F 74% 30.36 in 10.0 mi NNE 8.1 mph - N/A   Mostly Cloudy
11:51 AM 50.0 °F - 37.9 °F 63% 30.36 in 10.0 mi NNE 9.2 mph - N/A   Mostly Cloudy
12:51 PM 52.0 °F - 37.0 °F 57% 30.32 in 10.0 mi ENE 13.8 mph 20.7 mph N/A   Mostly Cloudy
1:51 PM 54.0 °F - 35.1 °F 49% 30.31 in 10.0 mi NE 13.8 mph 19.6 mph N/A   Mostly Cloudy
2:51 PM 52.0 °F - 33.1 °F 49% 30.31 in 10.0 mi NE 12.7 mph - N/A   Mostly Cloudy
3:51 PM 53.1 °F - 33.1 °F 47% 30.31 in 10.0 mi NNE 12.7 mph - N/A   Scattered Clouds
4:51 PM 50.0 °F - 33.1 °F 52% 30.31 in 10.0 mi NE 15.0 mph - N/A   Scattered Clouds
5:51 PM 46.9 °F - 34.0 °F 61% 30.32 in 10.0 mi NNE 10.4 mph - N/A   Scattered Clouds
6:51 PM 45.0 °F 40.1 °F 34.0 °F 65% 30.34 in 10.0 mi NNE 9.2 mph - N/A   Scattered Clouds
7:51 PM 44.1 °F 39.0 °F 34.0 °F 68% 30.35 in 10.0 mi North 9.2 mph - N/A   Clear
8:51 PM 42.1 °F 37.1 °F 34.0 °F 73% 30.35 in 10.0 mi North 8.1 mph - N/A   Clear
9:51 PM 42.1 °F 38.4 °F 34.0 °F 73% 30.35 in 10.0 mi NNW 5.8 mph - N/A   Clear
10:51 PM 41.0 °F 35.8 °F 34.0 °F 76% 30.34 in 10.0 mi North 8.1 mph - N/A   Clear
11:51 PM 39.2 °F 33.0 °F 33.8 °F 81% 30.34 in 10.0 mi North 9.2 mph - N/A   Clear